STARLINK-31453 (59522 NORAD) Tracking and Keplerian Element Data

This shows tracking and keplerian element data for the satellite.

Feedback or suggestion? Click here.




ElementValue
Catalog59522
NameSTARLINK-31453
Epoch Orbit908
Epoch Day159.92820573
Epoch Year2024
RAAN2.9661
Inclination43.0024
Eccentricity0.0005221
Argument of Perigee296.0588
Mean Anonmoly63.9732
Mean Motion15.43845408
Decay Rate0.00136238
L11 59522U 24073M 24159.92820573 .00136238 00000+0 28888-2 0 9994
L22 59522 43.0024 2.9661 0005221 296.0588 63.9732 15.43845408 9089



Live tracking and technical data element details for STARLINK-31453 (NORAD 59522). STARLINK-31453 can be tracked NOW for your location showing map with azimuth and elevation plus other details from your city location.







IsCatalogInMostPopularTable: catalog: 59522, numindb: 11
Update: records affected: 1



GetName: 59522 STARLINK-31453

Hit Count: updated at: Fri, 14 Jun 2024 19:09:44 GMT